BCS161 EDDM-EDDH

Flight info

Callsign BCS161
Flight time N/A
Altitude 36000
Route INPUD3E INPUD Y102 UPALA M726 NARUS DCT ABGUS DCT DIRBO/N0390F230 T902 RARUP RARUP6A
Aircraft B738/M-SDE2E3FGHIRWXY/LB1

Departure

Time 2026-05-08 07:14
Airport Munich Airport (EDDM)

Arrival

Time N/A
Airport Hamburg Helmut Schmidt Airport (EDDH)
Time Latitude Longitude Altitude Speed Heading
2026-05-08 06:15 48.34874 11.77168 1470 ft 0 kts 353°
2026-05-08 07:00 48.34856 11.77172 1473 ft 4 kts 353°
2026-05-08 07:00 48.34831 11.77176 1473 ft 2 kts 353°
2026-05-08 07:01 48.34808 11.77183 1477 ft 4 kts 329°
2026-05-08 07:01 48.34791 11.77209 1477 ft 4 kts 282°
2026-05-08 07:01 48.34791 11.77246 1476 ft 4 kts 263°
2026-05-08 07:01 48.34792 11.77261 1476 ft 1 kts 263°
2026-05-08 07:06 48.34790 11.77230 1470 ft 5 kts 263°
2026-05-08 07:07 48.34784 11.77156 1481 ft 11 kts 263°
2026-05-08 07:07 48.34774 11.77037 1481 ft 12 kts 264°
2026-05-08 07:07 48.34766 11.76917 1481 ft 12 kts 263°
2026-05-08 07:07 48.34755 11.76779 1484 ft 14 kts 263°
2026-05-08 07:08 48.34743 11.76618 1484 ft 16 kts 263°
2026-05-08 07:08 48.34730 11.76457 1484 ft 15 kts 262°
2026-05-08 07:08 48.34719 11.76302 1484 ft 15 kts 263°
2026-05-08 07:08 48.34707 11.76154 1480 ft 14 kts 263°
2026-05-08 07:09 48.34696 11.76012 1481 ft 13 kts 263°
2026-05-08 07:09 48.34685 11.75876 1481 ft 13 kts 263°
2026-05-08 07:09 48.34647 11.75755 1481 ft 14 kts 198°
2026-05-08 07:09 48.34552 11.75763 1474 ft 13 kts 173°
2026-05-08 07:10 48.34493 11.75689 1473 ft 13 kts 262°
2026-05-08 07:10 48.34483 11.75556 1475 ft 13 kts 263°
2026-05-08 07:10 48.34473 11.75426 1484 ft 12 kts 263°
2026-05-08 07:10 48.34463 11.75300 1474 ft 12 kts 263°
2026-05-08 07:11 48.34413 11.75219 1480 ft 12 kts 182°
2026-05-08 07:11 48.34333 11.75230 1484 ft 11 kts 172°
2026-05-08 07:11 48.34256 11.75244 1477 ft 11 kts 173°
2026-05-08 07:11 48.34180 11.75258 1482 ft 11 kts 173°
2026-05-08 07:12 48.34108 11.75272 1474 ft 9 kts 172°
2026-05-08 07:12 48.34086 11.75320 1484 ft 4 kts 84°
2026-05-08 07:12 48.34086 11.75324 1484 ft 0 kts 84°
2026-05-08 07:13 48.34087 11.75331 1484 ft 6 kts 84°
2026-05-08 07:13 48.34113 11.75680 1482 ft 69 kts 83°
2026-05-08 07:13 48.34193 11.76734 1475 ft 131 kts 83°
2026-05-08 07:13 48.34318 11.78339 1580 ft 173 kts 84°
2026-05-08 07:14 48.34432 11.80094 2426 ft 166 kts 84°
2026-05-08 07:14 48.34572 11.81783 3303 ft 163 kts 83°
2026-05-08 07:14 48.34731 11.83561 3822 ft 186 kts 83°
2026-05-08 07:14 48.35052 11.85606 4050 ft 216 kts 62°
2026-05-08 07:15 48.36236 11.87136 4255 ft 243 kts 19°
2026-05-08 07:15 48.37985 11.87278 4668 ft 262 kts 352°
2026-05-08 07:15 48.39753 11.86556 5456 ft 267 kts 327°
2026-05-08 07:15 48.41087 11.84666 6431 ft 264 kts 311°
2026-05-08 07:16 48.42354 11.82614 6892 ft 268 kts 312°
2026-05-08 07:16 48.43644 11.80574 7077 ft 269 kts 312°
2026-05-08 07:16 48.44952 11.78521 7272 ft 275 kts 312°
2026-05-08 07:16 48.46281 11.76448 8171 ft 273 kts 312°
2026-05-08 07:17 48.47597 11.74401 9125 ft 272 kts 312°
2026-05-08 07:17 48.48921 11.72342 9999 ft 275 kts 311°
2026-05-08 07:17 48.50261 11.70261 10747 ft 279 kts 311°
2026-05-08 07:17 48.51626 11.68142 11499 ft 284 kts 312°
2026-05-08 07:18 48.52541 11.66722 12008 ft 287 kts 312°
2026-05-08 07:18 48.53994 11.64464 12836 ft 291 kts 312°
2026-05-08 07:18 48.55416 11.62253 13654 ft 295 kts 312°
2026-05-08 07:18 48.56896 11.60067 14410 ft 301 kts 321°
2026-05-08 07:19 48.58798 11.58561 14806 ft 323 kts 337°
2026-05-08 07:19 48.60988 11.57344 14986 ft 347 kts 338°
2026-05-08 07:19 48.63314 11.56045 15320 ft 363 kts 338°
2026-05-08 07:19 48.65701 11.54679 15957 ft 370 kts 337°
2026-05-08 07:20 48.68117 11.53280 16724 ft 373 kts 337°
2026-05-08 07:20 48.70548 11.51872 17465 ft 376 kts 337°
2026-05-08 07:20 48.73011 11.50446 18178 ft 381 kts 337°
2026-05-08 07:20 48.75502 11.49001 18818 ft 386 kts 336°
2026-05-08 07:21 48.78017 11.47541 19447 ft 388 kts 336°
2026-05-08 07:21 48.80551 11.46069 20103 ft 391 kts 336°
2026-05-08 07:21 48.83103 11.44584 20727 ft 394 kts 336°
2026-05-08 07:21 48.85670 11.43089 21362 ft 397 kts 336°
2026-05-08 07:22 48.88257 11.41580 22004 ft 399 kts 336°
2026-05-08 07:22 48.90858 11.40061 22578 ft 403 kts 336°
2026-05-08 07:22 48.93489 11.38523 23144 ft 407 kts 336°
2026-05-08 07:22 48.96141 11.36971 23701 ft 410 kts 336°
2026-05-08 07:23 48.98814 11.35405 24187 ft 413 kts 336°
2026-05-08 07:23 49.01507 11.33825 24652 ft 415 kts 336°
2026-05-08 07:23 49.04210 11.32238 25115 ft 418 kts 336°
2026-05-08 07:23 49.06934 11.30637 25566 ft 421 kts 336°
2026-05-08 07:24 49.09672 11.29025 26013 ft 423 kts 336°
2026-05-08 07:24 49.12428 11.27401 26457 ft 426 kts 335°
2026-05-08 07:24 49.15201 11.25765 26883 ft 429 kts 335°
2026-05-08 07:24 49.17993 11.24117 27306 ft 431 kts 335°
2026-05-08 07:25 49.20871 11.22710 27701 ft 437 kts 344°
2026-05-08 07:25 49.23892 11.21999 28108 ft 444 kts 353°
2026-05-08 07:25 49.30125 11.22026 28886 ft 451 kts 358°
2026-05-08 07:26 49.33270 11.22123 29245 ft 454 kts 358°
2026-05-08 07:26 49.36438 11.22203 29587 ft 456 kts 357°
2026-05-08 07:26 49.39621 11.22258 29937 ft 458 kts 357°
2026-05-08 07:26 49.42819 11.22295 30281 ft 461 kts 357°
2026-05-08 07:27 49.45981 11.22322 30620 ft 461 kts 357°
2026-05-08 07:27 49.49190 11.22349 31052 ft 459 kts 357°
2026-05-08 07:27 49.52378 11.22377 31497 ft 457 kts 356°
2026-05-08 07:27 49.55558 11.22405 31882 ft 456 kts 356°
2026-05-08 07:28 49.58729 11.22424 32242 ft 456 kts 356°
2026-05-08 07:28 49.61905 11.22437 32610 ft 455 kts 356°
2026-05-08 07:28 49.65069 11.22449 33035 ft 454 kts 356°
2026-05-08 07:28 49.68217 11.22462 33488 ft 452 kts 356°
2026-05-08 07:29 49.71358 11.22475 33880 ft 451 kts 356°
2026-05-08 07:29 49.74498 11.22489 34184 ft 451 kts 356°
2026-05-08 07:29 49.77634 11.22503 34441 ft 451 kts 356°
2026-05-08 07:29 49.80784 11.22514 34677 ft 452 kts 356°
2026-05-08 07:30 49.83935 11.22524 34921 ft 453 kts 356°
2026-05-08 07:30 49.87092 11.22533 35182 ft 453 kts 356°
2026-05-08 07:30 49.90245 11.22543 35473 ft 453 kts 356°
2026-05-08 07:30 49.93403 11.22553 35726 ft 454 kts 356°
2026-05-08 07:31 49.96574 11.22564 35950 ft 455 kts 356°
2026-05-08 07:31 49.99739 11.22574 36120 ft 457 kts 356°
2026-05-08 07:31 50.02940 11.22584 36106 ft 461 kts 356°
2026-05-08 07:32 50.09342 11.22609 36109 ft 458 kts 357°
2026-05-08 07:32 50.15628 11.22655 36116 ft 453 kts 357°
2026-05-08 07:33 50.21928 11.22701 36117 ft 452 kts 357°
2026-05-08 07:33 50.28214 11.22745 36119 ft 452 kts 357°
2026-05-08 07:34 50.34504 11.22789 36129 ft 452 kts 357°
2026-05-08 07:34 50.40766 11.22339 36128 ft 450 kts 351°
2026-05-08 07:35 50.46989 11.21271 36128 ft 450 kts 350°
2026-05-08 07:35 50.53222 11.20243 36128 ft 451 kts 351°
2026-05-08 07:36 50.59476 11.19298 36120 ft 452 kts 351°
2026-05-08 07:36 50.65735 11.18362 36128 ft 452 kts 351°
2026-05-08 07:37 50.72016 11.17562 36132 ft 453 kts 353°
2026-05-08 07:37 50.78314 11.16939 36142 ft 453 kts 353°
2026-05-08 07:38 50.84621 11.16314 36151 ft 454 kts 353°
2026-05-08 07:38 50.90922 11.15661 36151 ft 454 kts 353°
2026-05-08 07:39 50.97183 11.14997 36151 ft 454 kts 353°
2026-05-08 07:39 51.03527 11.14322 36151 ft 454 kts 353°
2026-05-08 07:40 51.09826 11.13649 36156 ft 453 kts 353°
2026-05-08 07:40 51.16120 11.12976 36146 ft 453 kts 353°